TOM1225 EGKK-LEMD

Flight info

Callsign TOM1225
Flight time 1h 45m
Altitude 31000
Route IMVUR N63 SAM M195 IBNID/N0478F330 M195 MARUK N621 LELNA DCT NOVAN DCT DELOG N864 NONTU
Aircraft B789/H-SDE1E2E3FGHIJ2J3J4J5M1RWXY/LB1D1

Departure

Time 2026-05-04 12:14
Airport London Gatwick Airport (EGKK)

Arrival

Time 2026-05-04 13:59
Airport Adolfo Suárez Madrid–Barajas Airport (LEMD)
Time Latitude Longitude Altitude Speed Heading
2026-05-04 11:43 51.15851 -0.17518 214 ft 0 kts 347°
2026-05-04 11:49 51.15850 -0.17517 214 ft 2 kts 347°
2026-05-04 11:49 51.15834 -0.17512 214 ft 2 kts 347°
2026-05-04 11:50 51.15818 -0.17506 217 ft 2 kts 347°
2026-05-04 11:50 51.15802 -0.17501 218 ft 2 kts 347°
2026-05-04 11:50 51.15786 -0.17495 224 ft 2 kts 339°
2026-05-04 11:50 51.15773 -0.17480 223 ft 2 kts 310°
2026-05-04 11:51 51.15765 -0.17458 226 ft 2 kts 285°
2026-05-04 11:51 51.15764 -0.17440 224 ft 2 kts 266°
2026-05-04 11:51 51.15763 -0.17463 227 ft 2 kts 266°
2026-05-04 11:51 51.15762 -0.17488 220 ft 2 kts 263°
2026-05-04 11:52 51.15761 -0.17500 223 ft 0 kts 260°
2026-05-04 11:55 51.15707 -0.17866 217 ft 16 kts 255°
2026-05-04 11:55 51.15685 -0.18058 221 ft 19 kts 259°
2026-05-04 11:56 51.15658 -0.18256 221 ft 14 kts 257°
2026-05-04 11:56 51.15609 -0.18344 223 ft 6 kts 186°
2026-05-04 11:56 51.15572 -0.18337 219 ft 0 kts 171°
2026-05-04 11:57 51.15570 -0.18337 218 ft 1 kts 171°
2026-05-04 11:57 51.15556 -0.18333 218 ft 3 kts 171°
2026-05-04 11:58 51.15530 -0.18327 217 ft 5 kts 171°
2026-05-04 11:58 51.15480 -0.18310 220 ft 13 kts 166°
2026-05-04 11:58 51.15381 -0.18271 222 ft 16 kts 168°
2026-05-04 11:58 51.15269 -0.18233 220 ft 15 kts 168°
2026-05-04 11:59 51.15206 -0.18235 226 ft 11 kts 205°
2026-05-04 11:59 51.15177 -0.18366 216 ft 8 kts 261°
2026-05-04 11:59 51.15166 -0.18462 220 ft 10 kts 259°
2026-05-04 11:59 51.15156 -0.18533 219 ft 10 kts 256°
2026-05-04 12:00 51.15138 -0.18651 218 ft 12 kts 256°
2026-05-04 12:00 51.15118 -0.18787 220 ft 13 kts 258°
2026-05-04 12:00 51.15093 -0.18983 226 ft 14 kts 257°
2026-05-04 12:00 51.15071 -0.19138 219 ft 15 kts 258°
2026-05-04 12:01 51.15045 -0.19235 219 ft 13 kts 220°
2026-05-04 12:01 51.14982 -0.19281 226 ft 8 kts 216°
2026-05-04 12:02 51.14811 -0.20367 222 ft 24 kts 257°
2026-05-04 12:03 51.14775 -0.20627 215 ft 24 kts 258°
2026-05-04 12:03 51.14747 -0.20827 220 ft 10 kts 257°
2026-05-04 12:03 51.14733 -0.20939 218 ft 11 kts 258°
2026-05-04 12:03 51.14726 -0.20994 224 ft 0 kts 258°
2026-05-04 12:05 51.14726 -0.20995 224 ft 0 kts 258°
2026-05-04 12:05 51.14724 -0.21012 223 ft 3 kts 258°
2026-05-04 12:05 51.14717 -0.21063 222 ft 7 kts 258°
2026-05-04 12:06 51.14705 -0.21150 218 ft 9 kts 257°
2026-05-04 12:06 51.14699 -0.21196 220 ft 0 kts 257°
2026-05-04 12:07 51.14697 -0.21205 222 ft 2 kts 257°
2026-05-04 12:08 51.14694 -0.21229 225 ft 3 kts 257°
2026-05-04 12:08 51.14688 -0.21268 220 ft 4 kts 253°
2026-05-04 12:08 51.14667 -0.21316 225 ft 6 kts 217°
2026-05-04 12:08 51.14635 -0.21327 221 ft 0 kts 180°
2026-05-04 12:11 51.14616 -0.21325 221 ft 5 kts 173°
2026-05-04 12:12 51.14560 -0.21289 221 ft 12 kts 143°
2026-05-04 12:12 51.14522 -0.21163 221 ft 12 kts 85°
2026-05-04 12:12 51.14536 -0.21025 222 ft 13 kts 81°
2026-05-04 12:12 51.14574 -0.20774 218 ft 54 kts 77°
2026-05-04 12:13 51.14717 -0.19741 223 ft 136 kts 77°
2026-05-04 12:14 51.17601 -0.05578 5511 ft 249 kts 32°
2026-05-04 12:15 51.19272 -0.04926 5371 ft 245 kts 354°
2026-05-04 12:15 51.20898 -0.05562 5228 ft 240 kts 333°
2026-05-04 12:15 51.22130 -0.07267 5202 ft 242 kts 305°
2026-05-04 12:15 51.22713 -0.09811 5203 ft 244 kts 273°
2026-05-04 12:16 51.22503 -0.12397 5549 ft 238 kts 257°
2026-05-04 12:16 51.22167 -0.15040 5970 ft 246 kts 258°
2026-05-04 12:16 51.21854 -0.17723 6394 ft 251 kts 259°
2026-05-04 12:16 51.21532 -0.20573 6794 ft 266 kts 259°
2026-05-04 12:17 51.21196 -0.23504 7188 ft 270 kts 258°
2026-05-04 12:17 51.20853 -0.26460 7579 ft 272 kts 258°
2026-05-04 12:17 51.20507 -0.29441 7979 ft 275 kts 258°
2026-05-04 12:17 51.20159 -0.32445 8369 ft 276 kts 258°
2026-05-04 12:18 51.19760 -0.35446 8774 ft 277 kts 253°
2026-05-04 12:18 51.19342 -0.38451 9171 ft 280 kts 259°
2026-05-04 12:18 51.19007 -0.41518 9573 ft 281 kts 258°
2026-05-04 12:18 51.18623 -0.44571 9967 ft 282 kts 257°
2026-05-04 12:19 51.18201 -0.47671 10014 ft 288 kts 256°
2026-05-04 12:19 51.17787 -0.50774 10013 ft 284 kts 257°
2026-05-04 12:19 51.17330 -0.53785 10229 ft 275 kts 247°
2026-05-04 12:19 51.16528 -0.56610 10618 ft 286 kts 246°
2026-05-04 12:20 51.15766 -0.59593 10994 ft 299 kts 247°
2026-05-04 12:20 51.14969 -0.62682 11390 ft 308 kts 246°
2026-05-04 12:20 51.14122 -0.65841 11778 ft 311 kts 245°
2026-05-04 12:20 51.13264 -0.69023 12194 ft 314 kts 246°
2026-05-04 12:21 51.12406 -0.72237 12836 ft 315 kts 246°
2026-05-04 12:21 51.11547 -0.75459 13411 ft 318 kts 245°
2026-05-04 12:21 51.10688 -0.78664 13962 ft 321 kts 245°
2026-05-04 12:21 51.09808 -0.81939 14474 ft 324 kts 245°
2026-05-04 12:22 51.08918 -0.85250 14978 ft 326 kts 245°
2026-05-04 12:22 51.08023 -0.88579 15479 ft 329 kts 245°
2026-05-04 12:22 51.07117 -0.91941 15977 ft 331 kts 245°
2026-05-04 12:22 51.06203 -0.95325 16455 ft 334 kts 245°
2026-05-04 12:23 51.05281 -0.98735 16935 ft 337 kts 245°
2026-05-04 12:23 51.04352 -1.02167 17404 ft 339 kts 244°
2026-05-04 12:23 51.03412 -1.05629 17878 ft 342 kts 244°
2026-05-04 12:23 51.02465 -1.09116 18314 ft 345 kts 244°
2026-05-04 12:24 51.01513 -1.12615 18726 ft 346 kts 244°
2026-05-04 12:24 51.00553 -1.16138 19147 ft 348 kts 244°
2026-05-04 12:24 50.99591 -1.19664 19561 ft 349 kts 244°
2026-05-04 12:24 50.98634 -1.23164 19950 ft 351 kts 244°
2026-05-04 12:25 50.97660 -1.26724 20348 ft 352 kts 244°
2026-05-04 12:25 50.96682 -1.30289 20721 ft 354 kts 244°
2026-05-04 12:25 50.95510 -1.33702 21071 ft 352 kts 229°
2026-05-04 12:25 50.93741 -1.36355 21440 ft 350 kts 213°
2026-05-04 12:26 50.91694 -1.38517 21748 ft 353 kts 213°
2026-05-04 12:26 50.89637 -1.40658 22144 ft 354 kts 212°
2026-05-04 12:26 50.87568 -1.42795 22488 ft 356 kts 212°
2026-05-04 12:26 50.85516 -1.44927 22840 ft 357 kts 213°
2026-05-04 12:27 50.83440 -1.47090 23171 ft 358 kts 213°
2026-05-04 12:27 50.81348 -1.49261 23516 ft 359 kts 213°
2026-05-04 12:27 50.79255 -1.51429 23791 ft 360 kts 213°
2026-05-04 12:27 50.77155 -1.53602 24069 ft 361 kts 212°
2026-05-04 12:28 50.75050 -1.55779 24349 ft 362 kts 212°
2026-05-04 12:28 50.72945 -1.57954 24615 ft 362 kts 212°
2026-05-04 12:28 50.70832 -1.60135 24864 ft 363 kts 212°
2026-05-04 12:28 50.68711 -1.62321 25116 ft 364 kts 212°
2026-05-04 12:29 50.66589 -1.64505 25360 ft 364 kts 212°
2026-05-04 12:29 50.64465 -1.66690 25605 ft 365 kts 212°
2026-05-04 12:29 50.62335 -1.68879 25841 ft 366 kts 212°
2026-05-04 12:29 50.60225 -1.71044 26060 ft 366 kts 212°
2026-05-04 12:30 50.58088 -1.73235 26300 ft 367 kts 211°
2026-05-04 12:30 50.55942 -1.75432 26528 ft 368 kts 211°
2026-05-04 12:30 50.53796 -1.77627 26747 ft 369 kts 211°
2026-05-04 12:30 50.51638 -1.79832 26965 ft 369 kts 211°
2026-05-04 12:31 50.49481 -1.82034 27158 ft 370 kts 211°
2026-05-04 12:31 50.47317 -1.84241 27384 ft 371 kts 211°
2026-05-04 12:31 50.45145 -1.86453 27567 ft 372 kts 211°
2026-05-04 12:31 50.42970 -1.88666 27773 ft 373 kts 211°
2026-05-04 12:32 50.40794 -1.90878 27954 ft 374 kts 211°
2026-05-04 12:32 50.36412 -1.95324 28303 ft 375 kts 211°
2026-05-04 12:32 50.34217 -1.97547 28495 ft 376 kts 211°
2026-05-04 12:33 50.32045 -1.99745 28663 ft 377 kts 211°
2026-05-04 12:33 50.29837 -2.01976 28838 ft 378 kts 210°
2026-05-04 12:33 50.27624 -2.04211 29008 ft 378 kts 210°
2026-05-04 12:33 50.25304 -2.06120 29152 ft 376 kts 200°
2026-05-04 12:34 50.22800 -2.07306 29305 ft 376 kts 189°
2026-05-04 12:34 50.20209 -2.07789 29440 ft 376 kts 185°
2026-05-04 12:34 50.17591 -2.08144 29571 ft 377 kts 185°
2026-05-04 12:34 50.14978 -2.08486 29740 ft 377 kts 184°
2026-05-04 12:35 50.12358 -2.08821 29903 ft 378 kts 184°
2026-05-04 12:35 50.09737 -2.09159 30049 ft 379 kts 185°
2026-05-04 12:35 50.07104 -2.09503 30176 ft 379 kts 185°
2026-05-04 12:36 50.01854 -2.10183 30369 ft 382 kts 184°
2026-05-04 12:36 49.99204 -2.10539 30471 ft 382 kts 187°
2026-05-04 12:36 49.96603 -2.11420 30565 ft 384 kts 195°
2026-05-04 12:37 49.91458 -2.13824 30728 ft 386 kts 195°
2026-05-04 12:37 49.88882 -2.15033 30829 ft 388 kts 195°
2026-05-04 12:37 49.86296 -2.16241 30915 ft 389 kts 195°
2026-05-04 12:38 49.81096 -2.18662 31019 ft 392 kts 195°
2026-05-04 12:38 49.75874 -2.21093 31020 ft 391 kts 195°
2026-05-04 12:39 49.70698 -2.23494 31019 ft 391 kts 195°
2026-05-04 12:39 49.65488 -2.25906 31022 ft 391 kts 195°
2026-05-04 12:40 49.60268 -2.28318 31022 ft 391 kts 195°
2026-05-04 12:40 49.55058 -2.30720 31025 ft 390 kts 195°
2026-05-04 12:41 49.49850 -2.33115 31024 ft 390 kts 195°
2026-05-04 12:41 49.44645 -2.35503 31026 ft 390 kts 195°
2026-05-04 12:42 49.39437 -2.37888 31029 ft 390 kts 195°
2026-05-04 12:42 49.34270 -2.40249 31026 ft 390 kts 195°
2026-05-04 12:43 49.29074 -2.42617 31008 ft 389 kts 195°
2026-05-04 12:43 49.23866 -2.44986 31007 ft 390 kts 195°
2026-05-04 12:44 49.18672 -2.47344 31008 ft 389 kts 195°
2026-05-04 12:44 49.13469 -2.49700 31012 ft 389 kts 195°
2026-05-04 12:45 49.08305 -2.52034 31014 ft 389 kts 195°
2026-05-04 12:45 49.03113 -2.54375 31015 ft 389 kts 195°
2026-05-04 12:46 48.98758 -2.56334 31015 ft 390 kts 195°
2026-05-04 12:46 48.93549 -2.58674 31018 ft 390 kts 195°
2026-05-04 12:47 48.88363 -2.60998 31015 ft 391 kts 195°
2026-05-04 12:47 48.83137 -2.63335 31017 ft 392 kts 195°
2026-05-04 12:48 48.77904 -2.65669 31013 ft 392 kts 195°
2026-05-04 12:48 48.72659 -2.68004 31009 ft 393 kts 195°
2026-05-04 12:49 48.67406 -2.70338 31006 ft 393 kts 195°
2026-05-04 12:49 48.62155 -2.72666 31005 ft 393 kts 195°
2026-05-04 12:50 48.56925 -2.74979 31002 ft 393 kts 195°
2026-05-04 12:50 48.51680 -2.77294 31003 ft 393 kts 195°
2026-05-04 12:51 48.46428 -2.79607 31000 ft 393 kts 195°
2026-05-04 12:51 48.41169 -2.81918 31002 ft 394 kts 195°
2026-05-04 12:52 48.35911 -2.84224 30996 ft 393 kts 195°
2026-05-04 12:52 48.30669 -2.86518 30996 ft 392 kts 195°
2026-05-04 12:53 48.25450 -2.88796 30994 ft 392 kts 195°
2026-05-04 12:53 48.20191 -2.91087 30986 ft 393 kts 195°
2026-05-04 12:54 48.14933 -2.93374 30988 ft 394 kts 195°
2026-05-04 12:54 48.09686 -2.95651 30988 ft 395 kts 195°
2026-05-04 12:55 48.04397 -2.97940 30984 ft 394 kts 195°
2026-05-04 12:55 47.99117 -3.00221 30984 ft 395 kts 195°
2026-05-04 12:56 47.93835 -3.02498 30981 ft 395 kts 195°
2026-05-04 12:56 47.88545 -3.04773 30984 ft 396 kts 195°
2026-05-04 12:57 47.83248 -3.07047 30985 ft 396 kts 195°
2026-05-04 12:57 47.77982 -3.09303 30985 ft 396 kts 195°
2026-05-04 12:58 47.72678 -3.11570 30987 ft 397 kts 195°
2026-05-04 12:58 47.67373 -3.13832 30988 ft 397 kts 195°
2026-05-04 12:59 47.62063 -3.16093 30994 ft 397 kts 195°
2026-05-04 12:59 47.56743 -3.18352 30993 ft 398 kts 195°
2026-05-04 13:00 47.51413 -3.20611 30995 ft 398 kts 195°
2026-05-04 13:00 47.46085 -3.22864 30997 ft 398 kts 195°
2026-05-04 13:01 47.40756 -3.25114 30992 ft 399 kts 195°
2026-05-04 13:01 47.35448 -3.27349 30997 ft 399 kts 195°
2026-05-04 13:02 47.30110 -3.29592 30995 ft 399 kts 195°
2026-05-04 13:02 47.24761 -3.31836 30997 ft 400 kts 195°
2026-05-04 13:03 47.19397 -3.34081 30997 ft 401 kts 195°
2026-05-04 13:03 47.13888 -3.36380 31002 ft 422 kts 195°
2026-05-04 13:04 47.08118 -3.38785 31002 ft 435 kts 195°
2026-05-04 13:04 47.02309 -3.41201 31000 ft 437 kts 195°
2026-05-04 13:05 46.96448 -3.43632 31000 ft 437 kts 195°
2026-05-04 13:05 46.90587 -3.46057 30999 ft 437 kts 195°
2026-05-04 13:06 46.84736 -3.48474 31001 ft 436 kts 195°
2026-05-04 13:06 46.78897 -3.50879 31002 ft 436 kts 195°
2026-05-04 13:07 46.73066 -3.53276 31000 ft 435 kts 195°
2026-05-04 13:07 46.67289 -3.55645 31001 ft 433 kts 195°
2026-05-04 13:08 46.61479 -3.58023 31000 ft 433 kts 195°
2026-05-04 13:08 46.55684 -3.60389 31006 ft 432 kts 195°
2026-05-04 13:09 46.49900 -3.62746 31002 ft 431 kts 195°
2026-05-04 13:09 46.44079 -3.65112 31001 ft 441 kts 195°
2026-05-04 13:10 46.38047 -3.67559 31004 ft 458 kts 195°
2026-05-04 13:10 46.31786 -3.69928 31012 ft 471 kts 188°
2026-05-04 13:11 46.25208 -3.70977 31008 ft 479 kts 186°
2026-05-04 13:11 46.18612 -3.71945 31004 ft 480 kts 186°
2026-05-04 13:12 46.11916 -3.72952 30999 ft 480 kts 186°
2026-05-04 13:12 46.05305 -3.73930 31000 ft 481 kts 186°
2026-05-04 13:13 45.98644 -3.74920 31006 ft 481 kts 186°
2026-05-04 13:13 45.91973 -3.75905 31002 ft 482 kts 186°
2026-05-04 13:14 45.85290 -3.76891 31002 ft 482 kts 186°
2026-05-04 13:14 45.78605 -3.77875 31004 ft 483 kts 186°
2026-05-04 13:15 45.71924 -3.78856 31003 ft 483 kts 186°
2026-05-04 13:15 45.65230 -3.79836 30999 ft 483 kts 186°
2026-05-04 13:16 45.58532 -3.80815 30997 ft 483 kts 186°
2026-05-04 13:16 45.51830 -3.81792 30997 ft 484 kts 186°
2026-05-04 13:17 45.45127 -3.82766 31000 ft 485 kts 186°
2026-05-04 13:17 45.38416 -3.83740 31004 ft 486 kts 186°
2026-05-04 13:18 45.31730 -3.84707 31002 ft 486 kts 186°
2026-05-04 13:18 45.24983 -3.85682 31000 ft 488 kts 186°
2026-05-04 13:19 45.18228 -3.86654 31003 ft 488 kts 186°
2026-05-04 13:19 45.11468 -3.87626 31004 ft 488 kts 186°
2026-05-04 13:20 45.04711 -3.88594 31003 ft 488 kts 186°
2026-05-04 13:20 44.97944 -3.89562 31001 ft 489 kts 186°
2026-05-04 13:21 44.91172 -3.90528 31002 ft 489 kts 186°
2026-05-04 13:21 44.84395 -3.91492 31002 ft 489 kts 186°
2026-05-04 13:22 44.77621 -3.92454 30998 ft 489 kts 186°
2026-05-04 13:22 44.70880 -3.93409 30997 ft 490 kts 187°
2026-05-04 13:23 44.64054 -3.94374 30996 ft 490 kts 187°
2026-05-04 13:23 44.57308 -3.95325 30993 ft 491 kts 187°
2026-05-04 13:24 44.50507 -3.96282 30995 ft 491 kts 187°
2026-05-04 13:24 44.43695 -3.97238 30997 ft 492 kts 187°
2026-05-04 13:25 44.33477 -3.98631 31002 ft 492 kts 184°
2026-05-04 13:25 44.26614 -3.98148 31007 ft 494 kts 178°
2026-05-04 13:26 44.19745 -3.97454 31007 ft 495 kts 178°
2026-05-04 13:26 44.12870 -3.96794 31009 ft 495 kts 178°
2026-05-04 13:27 44.06035 -3.96121 31002 ft 496 kts 178°
2026-05-04 13:27 43.99150 -3.95454 30999 ft 495 kts 178°
2026-05-04 13:28 43.92288 -3.94787 31007 ft 495 kts 178°
2026-05-04 13:28 43.85396 -3.94121 31004 ft 496 kts 178°
2026-05-04 13:29 43.78503 -3.93455 31007 ft 496 kts 178°
2026-05-04 13:29 43.71605 -3.92790 31019 ft 496 kts 178°
2026-05-04 13:30 43.64771 -3.92134 31026 ft 495 kts 178°
2026-05-04 13:30 43.57887 -3.91475 31032 ft 497 kts 178°
2026-05-04 13:31 43.50973 -3.90814 31039 ft 498 kts 178°
2026-05-04 13:31 43.44060 -3.90403 31055 ft 495 kts 187°
2026-05-04 13:32 43.37190 -3.91387 31055 ft 497 kts 188°
2026-05-04 13:32 43.30320 -3.92424 31049 ft 497 kts 188°
2026-05-04 13:33 43.23440 -3.93430 31046 ft 497 kts 188°
2026-05-04 13:33 43.16557 -3.94452 31036 ft 497 kts 188°
2026-05-04 13:34 43.10836 -3.95291 31029 ft 497 kts 188°
2026-05-04 13:34 43.02835 -3.96468 31012 ft 497 kts 188°
2026-05-04 13:35 42.93636 -3.97815 31015 ft 497 kts 188°
2026-05-04 13:36 42.86800 -3.98814 31005 ft 497 kts 189°
2026-05-04 13:36 42.79914 -3.99817 31000 ft 497 kts 189°
2026-05-04 13:37 42.73028 -4.00819 30998 ft 497 kts 189°
2026-05-04 13:37 42.66141 -4.01818 30990 ft 497 kts 189°
2026-05-04 13:38 42.59260 -4.02814 30994 ft 497 kts 189°
2026-05-04 13:38 42.52392 -4.03806 30985 ft 494 kts 189°
2026-05-04 13:39 42.45555 -4.04793 30987 ft 495 kts 189°
2026-05-04 13:39 42.38735 -4.05774 30988 ft 496 kts 189°
2026-05-04 13:40 42.31857 -4.06761 30990 ft 497 kts 189°
2026-05-04 13:40 42.24964 -4.07748 30978 ft 498 kts 189°
2026-05-04 13:41 42.18066 -4.08734 30976 ft 498 kts 189°
2026-05-04 13:41 42.11178 -4.09716 30972 ft 498 kts 189°
2026-05-04 13:42 42.00833 -4.11110 30972 ft 498 kts 188°
2026-05-04 13:42 41.93956 -4.11930 30971 ft 499 kts 189°
2026-05-04 13:43 41.87066 -4.12701 30340 ft 490 kts 188°
2026-05-04 13:43 41.83665 -4.13080 28740 ft 487 kts 188°
2026-05-04 13:43 41.80315 -4.13473 27487 ft 478 kts 188°
2026-05-04 13:44 41.77022 -4.13852 26234 ft 471 kts 188°
2026-05-04 13:44 41.73778 -4.14216 25032 ft 464 kts 188°
2026-05-04 13:44 41.70618 -4.14570 23892 ft 458 kts 188°
2026-05-04 13:44 41.67460 -4.14930 22625 ft 451 kts 188°
2026-05-04 13:45 41.64381 -4.15279 21082 ft 438 kts 187°
2026-05-04 13:45 41.61369 -4.15620 19633 ft 428 kts 187°
2026-05-04 13:45 41.58443 -4.15950 18226 ft 417 kts 187°
2026-05-04 13:45 41.55589 -4.16272 16661 ft 407 kts 187°
2026-05-04 13:46 41.52802 -4.16586 15453 ft 394 kts 187°
2026-05-04 13:46 41.50105 -4.16890 14995 ft 389 kts 187°
2026-05-04 13:46 41.47380 -4.17200 14992 ft 396 kts 187°
2026-05-04 13:46 41.44634 -4.17509 14991 ft 396 kts 187°
2026-05-04 13:47 41.41899 -4.17814 14504 ft 395 kts 187°
2026-05-04 13:47 41.39166 -4.18122 13855 ft 391 kts 187°
2026-05-04 13:47 41.36482 -4.18424 13234 ft 391 kts 187°
2026-05-04 13:47 41.33789 -4.18724 12727 ft 387 kts 187°
2026-05-04 13:48 41.31076 -4.19021 12199 ft 384 kts 186°
2026-05-04 13:48 41.28416 -4.18741 11619 ft 387 kts 170°
2026-05-04 13:48 41.25913 -4.17552 11130 ft 389 kts 154°
2026-05-04 13:48 41.23719 -4.15488 10989 ft 386 kts 139°
2026-05-04 13:49 41.21823 -4.12905 10990 ft 393 kts 136°
2026-05-04 13:49 41.19932 -4.10288 10996 ft 392 kts 135°
2026-05-04 13:49 41.18053 -4.07641 10992 ft 393 kts 135°
2026-05-04 13:49 41.16178 -4.05017 10994 ft 393 kts 136°
2026-05-04 13:50 41.14291 -4.02403 10990 ft 393 kts 136°
2026-05-04 13:50 41.12396 -3.99775 10992 ft 393 kts 136°
2026-05-04 13:50 41.10513 -3.97156 10991 ft 389 kts 135°
2026-05-04 13:50 41.08672 -3.94594 10985 ft 379 kts 136°
2026-05-04 13:51 41.06869 -3.92095 10975 ft 373 kts 136°
2026-05-04 13:51 41.05077 -3.89619 10970 ft 371 kts 136°
2026-05-04 13:51 41.03290 -3.87146 10971 ft 370 kts 136°
2026-05-04 13:51 41.01535 -3.84717 10972 ft 370 kts 136°
2026-05-04 13:52 40.97949 -3.79829 10961 ft 367 kts 141°
2026-05-04 13:52 40.95854 -3.77914 10963 ft 367 kts 149°
2026-05-04 13:52 40.93719 -3.76045 10962 ft 368 kts 149°
2026-05-04 13:53 40.91617 -3.74194 10377 ft 362 kts 149°
2026-05-04 13:53 40.89505 -3.72351 9626 ft 362 kts 149°
2026-05-04 13:53 40.87406 -3.70526 8901 ft 358 kts 149°
2026-05-04 13:54 40.83278 -3.66928 7476 ft 353 kts 148°
2026-05-04 13:54 40.81239 -3.65153 6782 ft 350 kts 148°
2026-05-04 13:54 40.77216 -3.61657 5490 ft 341 kts 148°
2026-05-04 13:55 40.75294 -3.59983 5438 ft 319 kts 148°
2026-05-04 13:55 40.71735 -3.56916 5469 ft 299 kts 152°
2026-05-04 13:55 40.69790 -3.56070 5472 ft 293 kts 178°
2026-05-04 13:56 40.67802 -3.55971 5473 ft 281 kts 182°
2026-05-04 13:56 40.65919 -3.55968 5412 ft 260 kts 183°
2026-05-04 13:56 40.62287 -3.56092 4381 ft 256 kts 185°
2026-05-04 13:57 40.60591 -3.56195 3670 ft 233 kts 185°
2026-05-04 13:57 40.59096 -3.56171 3357 ft 195 kts 181°
2026-05-04 13:58 40.55702 -3.55926 2632 ft 137 kts 185°
2026-05-04 13:58 40.53816 -3.55933 2195 ft 133 kts 183°
2026-05-04 13:58 40.52882 -3.55914 1937 ft 129 kts 187°
2026-05-04 13:59 40.52133 -3.55933 1944 ft 89 kts 180°
2026-05-04 13:59 40.51602 -3.55932 1944 ft 67 kts 181°
2026-05-04 13:59 40.50882 -3.56052 1952 ft 40 kts 213°
2026-05-04 14:00 40.50660 -3.56167 1954 ft 29 kts 186°
2026-05-04 14:00 40.50371 -3.56148 1955 ft 13 kts 179°
2026-05-04 14:00 40.50297 -3.56147 1956 ft 8 kts 180°
2026-05-04 14:01 40.50266 -3.56147 1956 ft 4 kts 181°
2026-05-04 14:01 40.50221 -3.56173 1957 ft 10 kts 226°
2026-05-04 14:01 40.50185 -3.56431 1963 ft 16 kts 243°
2026-05-04 14:02 40.50132 -3.56470 1964 ft 6 kts 174°
2026-05-04 14:02 40.50088 -3.56462 1964 ft 7 kts 173°
2026-05-04 14:02 40.50036 -3.56459 1964 ft 8 kts 178°
2026-05-04 14:02 40.49978 -3.56457 1965 ft 9 kts 179°
2026-05-04 14:03 40.49917 -3.56458 1965 ft 9 kts 181°
2026-05-04 14:03 40.49856 -3.56464 1966 ft 8 kts 194°
2026-05-04 14:03 40.49827 -3.56498 1967 ft 4 kts 242°
2026-05-04 14:03 40.49823 -3.56515 1967 ft 2 kts 257°
2026-05-04 14:04 40.49833 -3.56627 1976 ft 5 kts 281°